TimeEDT,TemperatureF,Dew PointF,Humidity,Sea Level PressureIn,VisibilityMPH,Wind Direction,Wind SpeedMPH,Gust SpeedMPH,PrecipitationIn,Events,Conditions,WindDirDegrees,DateUTC
12:15 AM,44.6,33.8,66,30.14,10.0,Calm,Calm,-,N/A,,Unknown,0,2011-10-23 04:15:00
12:35 AM,44.6,33.8,66,30.13,10.0,Calm,Calm,-,N/A,,Unknown,0,2011-10-23 04:35:00
12:55 AM,46.4,33.8,62,30.13,10.0,Calm,Calm,-,N/A,,Unknown,0,2011-10-23 04:55:00
1:15 AM,44.6,33.8,66,30.13,10.0,Calm,Calm,-,N/A,,Unknown,0,2011-10-23 05:15:00
1:35 AM,44.6,33.8,66,30.12,10.0,Calm,Calm,-,N/A,,Unknown,0,2011-10-23 05:35:00
2:15 AM,44.6,33.8,66,30.12,10.0,Calm,Calm,-,N/A,,Unknown,0,2011-10-23 06:15:00
2:35 AM,42.8,33.8,70,30.11,10.0,Calm,Calm,-,N/A,,Unknown,0,2011-10-23 06:35:00
2:55 AM,44.6,32.0,61,30.11,10.0,Calm,Calm,-,N/A,,Unknown,0,2011-10-23 06:55:00
3:15 AM,44.6,32.0,61,30.10,10.0,Calm,Calm,-,N/A,,Unknown,0,2011-10-23 07:15:00
3:35 AM,41.0,33.8,76,30.10,10.0,Calm,Calm,-,N/A,,Unknown,0,2011-10-23 07:35:00
3:55 AM,42.8,32.0,66,30.10,10.0,Calm,Calm,-,N/A,,Unknown,0,2011-10-23 07:55:00
4:15 AM,42.8,32.0,66,30.11,10.0,Calm,Calm,-,N/A,,Unknown,0,2011-10-23 08:15:00
4:35 AM,42.8,32.0,66,30.11,10.0,Calm,Calm,-,N/A,,Unknown,0,2011-10-23 08:35:00
4:55 AM,44.6,32.0,61,30.11,10.0,Calm,Calm,-,N/A,,Unknown,0,2011-10-23 08:55:00
5:15 AM,44.6,32.0,61,30.10,10.0,Calm,Calm,-,N/A,,Unknown,0,2011-10-23 09:15:00
5:35 AM,41.0,33.8,76,30.11,10.0,Calm,Calm,-,N/A,,Unknown,0,2011-10-23 09:35:00
5:55 AM,41.0,32.0,70,30.12,10.0,Calm,Calm,-,N/A,,Unknown,0,2011-10-23 09:55:00
6:15 AM,39.2,32.0,75,30.12,10.0,Calm,Calm,-,N/A,,Unknown,0,2011-10-23 10:15:00
6:35 AM,41.0,32.0,70,30.12,10.0,Calm,Calm,-,N/A,,Unknown,0,2011-10-23 10:35:00
6:55 AM,39.2,30.2,70,30.12,10.0,SSW,3.5,-,N/A,,Unknown,200,2011-10-23 10:55:00
7:15 AM,41.0,32.0,70,30.12,10.0,Calm,Calm,-,N/A,,Unknown,0,2011-10-23 11:15:00
7:55 AM,41.0,32.0,70,30.13,10.0,Calm,Calm,-,N/A,,Unknown,0,2011-10-23 11:55:00
8:15 AM,39.2,30.2,70,30.14,10.0,SSW,3.5,-,N/A,,Unknown,210,2011-10-23 12:15:00
8:35 AM,39.2,32.0,75,30.15,10.0,SSW,3.5,-,N/A,,Unknown,210,2011-10-23 12:35:00
8:55 AM,44.6,33.8,66,30.16,10.0,Calm,Calm,-,N/A,,Unknown,0,2011-10-23 12:55:00
9:15 AM,46.4,37.4,71,30.15,10.0,Calm,Calm,-,N/A,,Unknown,0,2011-10-23 13:15:00
9:35 AM,50.0,35.6,58,30.16,10.0,Calm,Calm,-,N/A,,Unknown,0,2011-10-23 13:35:00
9:55 AM,51.8,35.6,54,30.16,10.0,Calm,Calm,-,N/A,,Unknown,0,2011-10-23 13:55:00
10:15 AM,53.6,35.6,51,30.16,10.0,Calm,Calm,-,N/A,,Unknown,0,2011-10-23 14:15:00
10:55 AM,57.2,35.6,44,30.16,10.0,WSW,5.8,-,N/A,,Unknown,240,2011-10-23 14:55:00
11:15 AM,57.2,33.8,41,30.16,10.0,WSW,4.6,-,N/A,,Unknown,240,2011-10-23 15:15:00
11:35 AM,57.2,33.8,41,30.16,0.8,SW,9.2,-,N/A,,Unknown,230,2011-10-23 15:35:00
11:55 AM,59.0,33.8,39,30.16,0.8,West,6.9,-,N/A,,Unknown,260,2011-10-23 15:55:00
12:15 PM,60.8,30.2,31,30.16,0.5,SW,4.6,-,N/A,,Unknown,220,2011-10-23 16:15:00
12:35 PM,60.8,28.4,29,30.16,0.5,SW,3.5,-,N/A,,Unknown,220,2011-10-23 16:35:00
12:55 PM,60.8,30.2,31,30.15,0.5,South,5.8,-,N/A,,Unknown,180,2011-10-23 16:55:00
1:15 PM,62.6,30.2,30,30.13,0.5,Calm,Calm,-,N/A,,Unknown,0,2011-10-23 17:15:00
1:35 PM,62.6,30.2,30,30.13,0.8,Calm,Calm,-,N/A,,Unknown,0,2011-10-23 17:35:00
1:55 PM,64.4,28.4,26,30.12,1.0,SW,4.6,-,N/A,,Unknown,230,2011-10-23 17:55:00
2:15 PM,64.4,28.4,26,30.11,2.5,Calm,Calm,-,N/A,,Unknown,0,2011-10-23 18:15:00
2:35 PM,64.4,28.4,26,30.11,10.0,West,4.6,-,N/A,,Unknown,280,2011-10-23 18:35:00
2:55 PM,64.4,26.6,24,30.10,10.0,West,3.5,-,N/A,,Unknown,270,2011-10-23 18:55:00
3:15 PM,64.4,26.6,24,30.10,10.0,South,4.6,-,N/A,,Unknown,170,2011-10-23 19:15:00
3:35 PM,64.4,26.6,24,30.10,10.0,WSW,3.5,-,N/A,,Unknown,240,2011-10-23 19:35:00
3:55 PM,66.2,26.6,23,30.10,5.0,Calm,Calm,-,N/A,,Unknown,0,2011-10-23 19:55:00
4:35 PM,64.4,28.4,26,30.10,10.0,Calm,Calm,-,N/A,,Unknown,0,2011-10-23 20:35:00
4:55 PM,64.4,28.4,26,30.10,10.0,North,3.5,-,N/A,,Unknown,10,2011-10-23 20:55:00
5:15 PM,62.6,28.4,27,30.10,10.0,NNW,5.8,-,N/A,,Unknown,340,2011-10-23 21:15:00
5:35 PM,62.6,28.4,27,30.10,10.0,NNW,3.5,-,N/A,,Unknown,330,2011-10-23 21:35:00
5:55 PM,60.8,28.4,29,30.10,10.0,NNW,3.5,-,N/A,,Unknown,340,2011-10-23 21:55:00
6:15 PM,59.0,28.4,31,30.10,10.0,NNW,3.5,-,N/A,,Unknown,340,2011-10-23 22:15:00
6:35 PM,57.2,28.4,33,30.11,10.0,Calm,Calm,-,N/A,,Unknown,0,2011-10-23 22:35:00
6:55 PM,57.2,28.4,33,30.12,10.0,Calm,Calm,-,N/A,,Unknown,0,2011-10-23 22:55:00
7:15 PM,57.2,28.4,33,30.12,10.0,Calm,Calm,-,N/A,,Unknown,0,2011-10-23 23:15:00
7:55 PM,55.4,32.0,41,30.13,10.0,Calm,Calm,-,N/A,,Unknown,0,2011-10-23 23:55:00
8:15 PM,55.4,32.0,41,30.13,10.0,Calm,Calm,-,N/A,,Unknown,0,2011-10-24 00:15:00
8:35 PM,53.6,33.8,47,30.13,10.0,Calm,Calm,-,N/A,,Unknown,0,2011-10-24 00:35:00
8:55 PM,55.4,32.0,41,30.13,10.0,Calm,Calm,-,N/A,,Unknown,0,2011-10-24 00:55:00
9:35 PM,51.8,33.8,50,30.14,10.0,Calm,Calm,-,N/A,,Unknown,0,2011-10-24 01:35:00
9:55 PM,51.8,33.8,50,30.14,10.0,Calm,Calm,-,N/A,,Unknown,0,2011-10-24 01:55:00
10:15 PM,51.8,35.6,54,30.14,10.0,Calm,Calm,-,N/A,,Unknown,0,2011-10-24 02:15:00
10:35 PM,53.6,33.8,47,30.14,10.0,Calm,Calm,-,N/A,,Unknown,0,2011-10-24 02:35:00
10:55 PM,51.8,35.6,54,30.14,10.0,South,3.5,-,N/A,,Unknown,190,2011-10-24 02:55:00
11:35 PM,53.6,33.8,47,30.14,10.0,Calm,Calm,-,N/A,,Unknown,0,2011-10-24 03:35:00
11:55 PM,51.8,37.4,58,30.14,10.0,Calm,Calm,-,N/A,,Unknown,0,2011-10-24 03:55:00